Location: Litvinovka
(48.6667°N, 34.3500°E)
Time: 07:17:54
(UTC+00:00)

Cosmos 494 Rocket - Pass Details

Date: 18 September 2020
Orbit: 741 x 771 km, 74.1° (Epoch: 21 October)

Event Time Altitude Azimuth Distance (km) Brightness Sun altitude
Rises 18:16:47 0° 334° (NNW) 3,245 8.2 -23.9°
Reaches altitude 10° 18:19:11 10° 332° (NNW) 2,318 7.3 -24.3°
Maximum altitude 18:24:23 66° 252° (WSW) 843 4.2 -25.0°
Enters shadow 18:25:33 51° 196° (SSW) 970 4.3 -25.1°
